Weather reports worldwide

Advertisment
Spadeadam, United Kingdom (3224): temperature & dewpoint: 16.07.2019 16:00:00 - 22.07.2019 16:00:00 (BST)Spadeadam, United Kingdom (3224): temperature -20cm: 16.07.2019 16:00:00 - 22.07.2019 16:00:00 (BST)Spadeadam, United Kingdom (3224): wind speed & gusts: 16.07.2019 16:00:00 - 22.07.2019 16:00:00 (BST)Spadeadam, United Kingdom (3224): wind direction: 16.07.2019 16:00:00 - 22.07.2019 16:00:00 (BST)Spadeadam, United Kingdom (3224): reduced air pressure: 16.07.2019 16:00:00 - 22.07.2019 16:00:00 (BST)Spadeadam, United Kingdom (3224): visibility: 16.07.2019 16:00:00 - 22.07.2019 16:00:00 (BST)Spadeadam, United Kingdom (3224): precipitation: 16.07.2019 16:00:00 - 22.07.2019 16:00:00 (BST)
Date & Time tt [°C] td [°C] tt -20cm [°C] ff [km/h] ff [kn] fx [km/h] fx [kn] dd ppp [hPa] vv [km] rr [mm]
22.07.2019 16:00:00 21,0 15,8 - 44 24 67 36 WSW 1014,5 35 0,0
22.07.2019 15:00:00 21,3 15,8 - 42 23 65 35 WSW 1014,5 40 0,0
22.07.2019 14:00:00 18,9 15,7 - 39 21 65 35 WSW 1014,8 30 0,0
22.07.2019 13:00:00 18,0 15,2 - 42 23 65 35 WSW 1014,6 10 0,0
22.07.2019 12:00:00 17,5 15,4 - 42 23 61 33 SW 1014,3 10 0,0
22.07.2019 11:00:00 17,6 15,8 - 42 23 59 32 SW 1013,7 10 0,0
22.07.2019 10:00:00 17,4 15,9 15,5 39 21 59 32 SW 1013,0 17 0,0
22.07.2019 09:00:00 17,1 16,0 - 37 20 57 31 WSW 1012,1 15 0,0
22.07.2019 08:00:00 16,8 15,9 - 39 21 63 34 WSW 1011,6 13 0,0
22.07.2019 07:00:00 16,7 16,0 - 42 23 67 36 SW 1011,1 16 0,0
22.07.2019 06:00:00 16,9 16,4 - 42 23 65 35 SW 1010,1 19 0,2
22.07.2019 05:00:00 16,9 16,6 - 42 23 65 35 SW 1009,5 9 0,6
22.07.2019 04:00:00 16,9 16,6 - 42 23 68 37 WSW 1009,2 11 0,4
22.07.2019 03:00:00 16,8 16,7 - 44 24 63 34 WSW 1008,8 11 1,0
22.07.2019 02:00:00 15,4 15,3 - 29 16 46 25 SW 1009,2 3,7 3,8
22.07.2019 01:00:00 14,7 14,5 - 35 19 52 28 SSW 1009,7 3,8 6,8
22.07.2019 00:00:00 14,2 13,7 - 34 18 46 25 S 1010,8 4,5 4,4
21.07.2019 23:00:00 14,2 13,8 - 22 12 - - S 1011,7 8 3,8
21.07.2019 22:00:00 14,2 13,8 - 22 12 - - S 1012,8 5 2,2
21.07.2019 21:00:00 14,1 13,5 - 15 8 - - S 1013,6 9 1,6
21.07.2019 20:00:00 14,2 13,2 - 16 9 - - SW 1014,5 8 0,8
21.07.2019 19:00:00 16,2 12,0 - 29 16 - - SW 1014,6 45 0,0
21.07.2019 18:00:00 16,3 12,2 - 28 15 - - SSW 1014,8 50 0,0
21.07.2019 17:00:00 16,1 12,2 - 29 16 - - SW 1015,1 50 0,0
21.07.2019 16:00:00 16,4 11,4 - 28 15 - - SW 1015,3 45 0,0
21.07.2019 15:00:00 16,9 11,8 - 28 15 - - WSW 1015,4 50 0,0
21.07.2019 14:00:00 17,2 9,7 - 29 16 - - SW 1015,4 50 0,0
21.07.2019 13:00:00 17,4 11,0 - 31 17 50 27 WSW 1015,2 30 0,0
21.07.2019 12:00:00 16,7 11,2 - 31 17 - - SW 1015,3 40 0,0
21.07.2019 11:00:00 16,5 12,7 - 24 13 - - WSW 1015,2 45 0,0
21.07.2019 10:00:00 15,1 12,2 15,4 22 12 - - WSW 1015,2 50 0,0
21.07.2019 09:00:00 14,8 12,3 - 18 10 - - SW 1014,7 45 0,0
21.07.2019 08:00:00 14,4 12,3 - 22 12 - - SW 1014,3 40 0,0
21.07.2019 07:00:00 12,8 11,6 - 13 7 - - WSW 1014,0 45 0,0
21.07.2019 06:00:00 11,5 10,9 - 11 6 - - SW 1014,0 40 0,0
21.07.2019 05:00:00 9,8 9,4 - 8 4 - - SW 1013,8 35 0,0
21.07.2019 04:00:00 10,5 10,3 - 4 2 - - W 1013,4 22 0,0
21.07.2019 03:00:00 10,1 9,9 - 8 4 - - W 1013,5 13 0,0
21.07.2019 02:00:00 8,7 8,5 - 13 7 - - W 1013,6 30 0,0
21.07.2019 01:00:00 8,2 7,2 - 9 5 - - WNW 1013,2 45 0,0
21.07.2019 00:00:00 10,0 8,4 - 21 11 - - W 1012,4 50 0,0
20.07.2019 23:00:00 11,6 9,5 - 18 10 - - W 1011,6 50 0,0
20.07.2019 22:00:00 13,0 9,8 - 21 11 - - W 1010,5 50 0,0
20.07.2019 21:00:00 13,8 9,6 - 22 12 - - W 1009,3 50 0,0
20.07.2019 20:00:00 15,4 9,4 - 26 14 - - W 1008,3 45 0,0
20.07.2019 19:00:00 16,3 9,9 - 31 17 52 28 W 1007,2 50 0,0
20.07.2019 18:00:00 17,2 9,8 - 34 18 55 30 W 1006,0 50 0,0
20.07.2019 17:00:00 16,8 10,7 - 34 18 50 27 W 1005,0 50 0,0
20.07.2019 16:00:00 18,4 12,4 - 31 17 48 26 W 1003,7 40 0,0
20.07.2019 15:00:00 18,1 13,2 - 34 18 46 25 W 1002,6 40 0,0
20.07.2019 14:00:00 18,2 15,5 - 29 16 - - W 1001,6 25 0,4
20.07.2019 13:00:00 18,1 14,6 - 26 14 - - W 1001,0 40 0,0
20.07.2019 12:00:00 17,4 14,0 - 18 10 - - WSW 1000,4 30 0,0
20.07.2019 11:00:00 16,8 14,9 - 13 7 - - WSW 1000,0 35 0,0
20.07.2019 10:00:00 15,2 14,2 15,4 11 6 - - WSW 999,9 21 0,2
20.07.2019 09:00:00 15,3 14,7 - 8 4 - - SW 999,6 16 0,0
20.07.2019 08:00:00 14,6 14,5 - 8 4 - - WSW 999,7 18 0,0
20.07.2019 07:00:00 13,9 13,7 - 11 6 - - W 999,7 11 2,2
20.07.2019 06:00:00 14,0 13,9 - 16 9 - - SSW 999,4 7 7,0
20.07.2019 05:00:00 14,4 14,3 - 11 6 - - SSW 999,5 5 2,0
20.07.2019 04:00:00 14,2 14,0 - 9 5 - - S 999,6 3,4 3,4
20.07.2019 03:00:00 13,3 12,9 - 8 4 - - SE 1000,3 7 0,0
20.07.2019 02:00:00 14,2 13,9 - 11 6 - - SSW 1000,4 8 0,2
20.07.2019 01:00:00 14,3 13,7 - 15 8 - - SSW 1000,6 11 0,0
20.07.2019 00:00:00 13,8 13,1 - 11 6 - - SW 1001,2 12 0,0
19.07.2019 23:00:00 14,6 14,2 - 16 9 - - SSW 1001,5 12 0,2
19.07.2019 22:00:00 15,2 15,0 - 16 9 - - SSW 1001,7 8 1,4
19.07.2019 21:00:00 15,5 15,2 - 4 2 - - ESE 1001,7 12 0,4
19.07.2019 20:00:00 14,9 14,6 - 16 9 - - ESE 1001,6 1,5 1,4
19.07.2019 19:00:00 14,5 13,8 - 15 8 - - E 1002,3 35 0,2
19.07.2019 18:00:00 14,6 13,8 - 13 7 - - E 1003,1 25 0,0
19.07.2019 17:00:00 14,9 14,0 - 16 9 - - SE 1003,8 6 1,4
19.07.2019 16:00:00 16,9 13,2 - 22 12 - - S 1004,2 45 0,0
19.07.2019 15:00:00 17,8 11,5 - 18 10 - - SSE 1004,7 45 0,0
19.07.2019 14:00:00 17,5 12,5 - 24 13 - - S 1005,3 50 0,0
19.07.2019 13:00:00 16,7 10,9 - 21 11 - - S 1005,9 50 0,0
19.07.2019 12:00:00 16,6 10,9 - 22 12 - - S 1006,4 50 0,0
19.07.2019 11:00:00 15,3 11,8 - 18 10 - - S 1006,7 45 0,0
19.07.2019 10:00:00 16,2 12,2 15,2 22 12 - - SSW 1006,9 26 0,0
19.07.2019 09:00:00 14,9 11,7 - 21 11 - - SW 1007,2 10 0,0
19.07.2019 08:00:00 14,7 12,6 - 15 8 - - SSW 1007,5 30 0,0
19.07.2019 07:00:00 13,0 12,1 - 9 5 - - SSW 1007,7 20 0,0
19.07.2019 06:00:00 11,7 11,3 - 9 5 - - SSW 1008,0 14 0,0
19.07.2019 05:00:00 11,5 11,0 - 11 6 - - W 1008,1 14 0,2
19.07.2019 04:00:00 11,6 10,6 - 13 7 - - WSW 1008,3 27 0,0
19.07.2019 03:00:00 11,0 10,1 - 13 7 - - SSW 1008,4 17 0,0
19.07.2019 02:00:00 11,2 10,6 - 11 6 - - WSW 1008,7 50 0,0
19.07.2019 01:00:00 10,4 9,7 - 8 4 - - WSW 1009,1 22 0,0
19.07.2019 00:00:00 11,2 10,9 - 5 3 - - WNW 1009,0 12 0,0
18.07.2019 23:00:00 11,0 10,5 - 9 5 - - WSW 1008,8 13 0,0
18.07.2019 22:00:00 12,0 10,9 - 22 12 - - W 1008,6 25 0,0
18.07.2019 21:00:00 13,4 11,7 - 22 12 - - WSW 1008,1 35 0,0
18.07.2019 20:00:00 13,4 11,7 - 26 14 - - W 1007,7 40 0,0
18.07.2019 19:00:00 14,1 10,7 - 29 16 - - WSW 1007,2 50 0,0
18.07.2019 18:00:00 15,3 11,3 - 31 17 50 27 WSW 1006,6 45 0,0
18.07.2019 17:00:00 15,6 10,5 - 31 17 54 29 WSW 1006,5 30 0,0
18.07.2019 16:00:00 15,8 10,0 - 34 18 50 27 WSW 1006,3 40 0,0
18.07.2019 15:00:00 15,7 10,1 - 34 18 - - WSW 1006,2 45 0,0
18.07.2019 14:00:00 15,5 10,9 - 35 19 48 26 WSW 1006,2 35 0,0
18.07.2019 13:00:00 14,3 11,9 - 29 16 - - WSW 1006,1 30 0,8
18.07.2019 12:00:00 13,5 11,7 - 24 13 - - WSW 1006,1 3,4 0,2
18.07.2019 11:00:00 13,4 11,8 - 24 13 - - WSW 1005,8 30 0,0
18.07.2019 10:00:00 13,2 12,5 15,5 21 11 - - WSW 1005,8 23 0,0
18.07.2019 09:00:00 12,4 11,5 - 18 10 - - W 1005,9 16 0,0
18.07.2019 08:00:00 11,5 11,5 - 21 11 - - WSW 1006,0 8 0,0
18.07.2019 07:00:00 10,8 10,8 - 18 10 - - W 1005,8 4,1 0,0
18.07.2019 06:00:00 10,1 10,1 - 11 6 - - W 1005,9 10 0,0
18.07.2019 05:00:00 10,0 9,9 - 16 9 - - WSW 1005,6 12 0,2
18.07.2019 04:00:00 11,1 11,0 - 26 14 - - W 1005,3 10 0,0
18.07.2019 03:00:00 12,2 12,1 - 26 14 - - SW 1005,0 0,1 0,0
18.07.2019 02:00:00 13,4 13,3 - 22 12 - - SW 1005,1 3,0 0,6
18.07.2019 01:00:00 13,7 13,2 - 22 12 - - SSW 1005,2 4,0 0,2
18.07.2019 00:00:00 13,9 12,9 - 24 13 - - SSW 1005,5 50 0,0
17.07.2019 23:00:00 13,7 12,7 - 21 11 - - SSW 1006,2 50 0,0
17.07.2019 22:00:00 13,5 12,7 - 22 12 - - SSW 1006,9 50 0,0
17.07.2019 21:00:00 13,4 12,6 - 22 12 - - SSW 1007,3 9 0,0
17.07.2019 20:00:00 13,6 13,0 - 18 10 - - SW 1007,4 30 0,4
17.07.2019 19:00:00 13,4 12,6 - 16 9 - - SW 1008,1 10 0,2
17.07.2019 18:00:00 13,9 13,1 - 21 11 - - SW 1008,7 18 0,2
17.07.2019 17:00:00 13,9 12,9 - 21 11 - - SW 1009,4 10 0,4
17.07.2019 16:00:00 14,7 11,7 - 24 13 - - WSW 1009,8 15 0,0
17.07.2019 15:00:00 14,7 13,4 - 28 15 - - WSW 1010,2 10 0,4
17.07.2019 14:00:00 17,4 12,1 - 31 17 - - SSW 1009,8 40 0,0
17.07.2019 13:00:00 17,7 12,5 - 26 14 - - SW 1010,4 10 0,0
17.07.2019 12:00:00 17,4 12,1 - 28 15 - - SSW 1010,8 35 0,0
17.07.2019 11:00:00 18,0 12,2 - 29 16 46 25 SW 1011,1 35 0,0
17.07.2019 10:00:00 16,7 12,6 16,0 26 14 - - SW 1011,9 40 0,0
17.07.2019 09:00:00 16,2 12,0 - 24 13 - - SW 1012,2 35 0,0
17.07.2019 08:00:00 14,4 12,6 - 8 4 - - S 1012,6 40 0,0
17.07.2019 07:00:00 13,4 11,3 - 13 7 - - SW 1012,9 35 0,0
17.07.2019 06:00:00 12,4 10,0 - 15 8 - - WSW 1013,5 40 0,0
17.07.2019 05:00:00 10,9 9,4 - 9 5 - - W 1014,1 23 0,0
17.07.2019 04:00:00 11,1 10,2 - 9 5 - - W 1014,6 24 0,0
17.07.2019 03:00:00 11,2 10,7 - 11 6 - - W 1015,2 15 0,0
17.07.2019 02:00:00 11,7 11,4 - 4 2 - - W 1015,9 8 0,0
17.07.2019 01:00:00 11,7 11,5 - 5 3 - - S 1016,1 6 0,0
17.07.2019 00:00:00 11,6 11,0 - 9 5 - - WNW 1016,5 9 0,0
16.07.2019 23:00:00 12,3 11,6 - 13 7 - - WNW 1016,7 9 0,0
16.07.2019 22:00:00 13,7 12,7 - 13 7 - - W 1016,6 8 0,0
16.07.2019 21:00:00 16,3 14,4 - 15 8 - - W 1016,3 12 0,0
16.07.2019 20:00:00 17,6 13,8 - 21 11 - - W 1016,2 29 0,0
16.07.2019 19:00:00 18,1 13,5 - 22 12 - - WSW 1016,2 27 0,0
16.07.2019 18:00:00 19,0 13,4 - 24 13 - - WSW 1016,2 24 0,0
16.07.2019 17:00:00 20,4 14,4 - 26 14 - - WSW 1016,2 35 0,0
16.07.2019 16:00:00 20,2 13,0 - 28 15 - - W 1016,5 30 0,0

tt = temperature
td = dewpoint
tt -20cm = temperature -20cm
ff = wind speed
fx = gusts
dd = wind direction
ppp = reduced air pressure
vv = visibility
rr = precipitation

Next stations